This is the latest recevied weather packets stored in our database for station/object SP9MUF-14. If no packets are shown the sender has not sent any weather packets the latest 10 day(s).
| Time | Temp. | Humidity | Pressure | Rain* | Wind** | Luminosity | Snow |
|---|---|---|---|---|---|---|---|
| 1788112971 | 22.78° C | 61% | 1014.7 hPa | 0 mm | - | 0 W/m² | - |
| 1788112680 | 22.78° C | 60% | 1014.6 hPa | 0 mm | - | 0 W/m² | - |
| 1788112367 | 22.78° C | 60% | 1014.5 hPa | 0 mm | - | 0 W/m² | - |
| 1788112065 | 23.89° C | 59% | 1014.5 hPa | 0 mm | - | 0 W/m² | - |
| 1788111763 | 23.89° C | 58% | 1014.5 hPa | 0 mm | - | 0 W/m² | - |
| 1788111159 | 23.89° C | 54% | 1014.3 hPa | 0 mm | - | 1 W/m² | - |
| 1788110554 | 25° C | 53% | 1014.1 hPa | 0 mm | - | 4 W/m² | - |
| 1788110252 | 25° C | 50% | 1014 hPa | 0 mm | - | 5 W/m² | - |
| 1788109950 | 25° C | 49% | 1014 hPa | 0 mm | - | 7 W/m² | - |
| 1788109346 | 25.56° C | 48% | 1013.9 hPa | 0 mm | - | 16 W/m² | - |
| 1788109044 | 26.67° C | 46% | 1013.8 hPa | 0 mm | - | 17 W/m² | - |
| 1788108439 | 27.78° C | 41% | 1013.6 hPa | 0 mm | - | 33 W/m² | - |
| 1788108137 | 27.78° C | 41% | 1013.6 hPa | 0 mm | - | 35 W/m² | - |
| 1788107835 | 27.78° C | 41% | 1013.5 hPa | 0 mm | - | 36 W/m² | - |
| 1788107533 | 27.78° C | 40% | 1013.6 hPa | 0 mm | - | 40 W/m² | - |
| 1788107231 | 26.67° C | 44% | 1013.6 hPa | 0 mm | - | 38 W/m² | - |
| 1788106929 | 26.67° C | 42% | 1013.5 hPa | 0 mm | - | 24 W/m² | - |
| 1788106627 | 27.78° C | 42% | 1013.5 hPa | 0 mm | - | 35 W/m² | - |
| 1788106324 | 27.78° C | 39% | 1013.6 hPa | 0 mm | - | 32 W/m² | - |
| 1788105114 | 28.89° C | 37% | 1013.5 hPa | 0 mm | - | 80 W/m² | - |
| 1788104507 | 28.89° C | 37% | 1013.5 hPa | 0 mm | - | 86 W/m² | - |
| 1788104205 | 28.89° C | 38% | 1013.5 hPa | 0 mm | - | 91 W/m² | - |
| 1788103902 | 28.89° C | 37% | 1013.5 hPa | 0 mm | - | 97 W/m² | - |
| 1788103600 | 28.89° C | 37% | 1013.6 hPa | 0 mm | - | 105 W/m² | - |
| 1788103298 | 28.89° C | 36% | 1013.7 hPa | 0 mm | - | 113 W/m² | - |
* Rain latest hour (hover to see other rain measurements)
** Current wind speed in m/s (hover to see current wind gust speed)